FW0532 Weather Reports


time (UTC)temp
C
wind
direction
speed
KPH
gust
KPH
rain 1hr
cm
rain 24hr
cm
rain mn
cm
humidity
%
barometer
mb
20260508022313 11 211 0.0 3.2 0.00 0.00 0.00 68 1012.4
20260508021813 11 210 0.0 3.2 0.00 0.00 0.00 68 1012.4
20260508021313 10 211 0.0 3.2 0.00 0.00 0.00 69 1012.2
20260508020813 10 210 0.0 1.6 0.00 0.00 0.00 71 1012.2
20260508020612 10 0 0.0 0.0 0.00 0.00 0.00 75 1012.2
20260508015822 9 213 0.0 0.0 0.00 0.00 0.00 76 1012.1
20260508015322 9 213 0.0 0.0 0.00 0.00 0.00 74 1012.0
20260508014822 9 213 0.0 0.0 0.00 0.00 0.00 76 1012.0
20260508014321 9 213 0.0 0.0 0.00 0.00 0.00 78 1011.9
20260508013821 10 213 0.0 0.0 0.00 0.00 0.00 78 1012.1
20260508013321 10 213 0.0 0.0 0.00 0.00 0.00 74 1012.1
20260508012821 10 213 0.0 0.0 0.00 0.00 0.00 73 1011.9
20260508012321 10 213 0.0 0.0 0.00 0.00 0.00 75 1012.0
20260508011320 10 213 0.0 0.0 0.00 0.00 0.00 72 1012.0
20260508010821 10 213 0.0 0.0 0.00 0.00 0.00 70 1012.1
20260508010320 10 213 0.0 0.0 0.00 0.00 0.00 71 1012.0
20260508005320 11 213 0.0 0.0 0.00 0.00 0.00 68 1011.9
20260508004820 11 213 0.0 0.0 0.00 0.00 0.00 64 1012.0
20260508004320 11 213 0.0 3.2 0.00 0.00 0.00 65 1012.1
20260508003820 11 213 0.0 4.8 0.00 0.00 0.00 70 1012.1
20260508003319 11 135 3.2 4.8 0.00 0.00 0.00 68 1012.1
20260508002319 11 195 0.0 0.0 0.00 0.00 0.00 71 1012.0
20260508001819 11 195 0.0 0.0 0.00 0.00 0.00 71 1012.0
20260508000819 11 236 0.0 1.6 0.00 0.00 0.00 65 1012.0
20260508000320 11 219 0.0 0.0 0.00 0.00 0.00 65 1011.9
20260507234819 12 219 0.0 3.2 0.00 0.00 0.00 60 1011.7
20260507234318 13 219 0.0 3.2 0.00 0.00 0.00 54 1011.6
20260507233317 14 180 1.6 9.7 0.00 0.00 0.00 48 1011.6
20260507232818 14 234 0.0 9.7 0.00 0.00 0.00 49 1011.6
20260507231817 15 206 4.8 8.0 0.00 0.00 0.00 46 1011.8
20260507231317 15 182 1.6 6.4 0.00 0.00 0.00 47 1011.8
20260507230817 15 221 3.2 6.4 0.00 0.00 0.00 45 1011.7
20260507230316 14 252 3.2 6.4 0.00 0.00 0.00 52 1011.8
20260507225816 13 246 0.0 9.7 0.00 0.00 0.00 51 1011.6
20260507224816 15 198 9.7 9.7 0.00 0.00 0.00 47 1011.6
20260507224316 15 279 4.8 9.7 0.00 0.00 0.00 50 1011.6
20260507223315 15 34 0.0 11.3 0.00 0.00 0.00 44 1011.5
20260507222816 14 204 0.0 3.2 0.00 0.00 0.00 46 1011.5
20260507222315 15 200 0.0 9.7 0.00 0.00 0.00 49 1011.6
20260507221816 14 200 0.0 9.7 0.00 0.00 0.00 45 1011.7
20260507220815 14 125 0.0 9.7 0.00 0.00 0.00 54 1011.7
20260507220315 14 274 0.0 11.3 0.00 0.00 0.00 48 1011.8
20260507215815 15 293 3.2 11.3 0.00 0.00 0.00 40 1011.9
20260507215315 15 131 0.0 11.3 0.00 0.00 0.00 44 1011.9
20260507214814 15 86 1.6 11.3 0.00 0.00 0.00 45 1011.8
20260507213814 15 321 1.6 8.0 0.00 0.00 0.00 43 1011.7
20260507212814 15 261 1.6 11.3 0.00 0.00 0.00 41 1011.9
20260507212314 16 193 0.0 19.3 0.00 0.00 0.00 48 1012.0
20260507210813 15 348 9.7 9.7 0.00 0.00 0.00 50 1011.9
20260507210314 15 250 1.6 6.4 0.00 0.00 0.00 45 1012.1
20260507205813 15 5 0.0 11.3 0.00 0.00 0.00 55 1012.1
20260507205313 15 355 1.6 17.7 0.00 0.00 0.00 49 1012.2
20260507204313 15 321 1.6 20.9 0.00 0.00 0.00 44 1012.2
20260507203812 15 319 4.8 20.9 0.00 0.00 0.00 44 1012.1
20260507203312 15 325 8.0 17.7 0.00 0.00 0.00 45 1012.0
20260507202812 15 342 8.0 17.7 0.00 0.00 0.00 45 1012.1
20260507202311 15 302 8.0 17.7 0.00 0.00 0.00 44 1012.0
20260507201812 15 281 3.2 29.0 0.00 0.00 0.00 47 1012.0
20260507201311 15 292 8.0 29.0 0.00 0.00 0.00 42 1012.1
20260507200811 16 317 16.1 25.7 0.00 0.00 0.00 47 1012.0
20260507200311 15 186 3.2 17.7 0.00 0.00 0.00 42 1012.1
20260507195811 15 339 11.3 17.7 0.00 0.00 0.00 47 1012.1
20260507195311 15 340 3.2 20.9 0.00 0.00 0.00 45 1012.0
20260507194810 15 271 14.5 22.5 0.00 0.00 0.00 45 1012.3
20260507194310 15 325 14.5 22.5 0.00 0.00 0.00 49 1012.4
20260507193810 15 351 8.0 16.1 0.00 0.00 0.00 46 1012.5
20260507193311 15 308 8.0 16.1 0.00 0.00 0.00 43 1012.5
20260507192310 14 355 8.0 24.1 0.00 0.00 0.00 48 1012.5
20260507191810 14 360 19.3 20.9 0.00 0.00 0.00 46 1012.6
20260507190809 15 304 1.6 19.3 0.00 0.00 0.00 51 1012.6
20260507190309 14 326 6.4 22.5 0.00 0.00 0.00 47 1012.6
20260507185809 14 267 4.8 25.7 0.00 0.00 0.00 50 1012.7
20260507185309 14 308 8.0 25.7 0.00 0.00 0.00 46 1012.7
20260507184808 14 5 3.2 19.3 0.00 0.00 0.00 50 1012.6
20260507184309 14 12 3.2 22.5 0.00 0.00 0.00 52 1012.8
20260507183808 14 146 1.6 22.5 0.00 0.00 0.00 48 1012.8
20260507183308 14 355 8.0 19.3 0.00 0.00 0.00 48 1012.8
20260507182808 13 5 4.8 17.7 0.00 0.00 0.00 47 1012.8
20260507182308 14 44 4.8 20.9 0.00 0.00 0.00 49 1012.9
20260507181808 14 13 9.7 25.7 0.00 0.00 0.00 48 1012.9
20260507181308 13 31 8.0 25.7 0.00 0.00 0.00 47 1012.8
20260507180307 13 326 16.1 30.6 0.00 0.00 0.00 47 1013.0
20260507175807 13 317 14.5 27.4 0.00 0.00 0.00 47 1013.1
20260507175307 13 17 14.5 27.4 0.00 0.00 0.00 46 1013.3
20260507174807 13 310 14.5 24.1 0.00 0.00 0.00 52 1013.3
20260507174306 13 355 9.7 27.4 0.00 0.00 0.00 50 1013.3
20260507173306 13 332 9.7 33.8 0.00 0.00 0.00 50 1013.3
20260507172806 13 341 8.0 33.8 0.00 0.00 0.00 53 1013.2
20260507172308 13 304 22.5 33.8 0.00 0.00 0.00 50 1013.2
20260507171806 13 336 6.4 25.7 0.00 0.00 0.00 49 1013.3
20260507171306 13 15 14.5 25.7 0.00 0.00 0.00 48 1013.3
20260507170806 13 360 12.9 25.7 0.00 0.00 0.00 47 1013.3
20260507165805 13 334 6.4 22.5 0.00 0.00 0.00 56 1013.4
20260507164805 12 329 14.5 25.7 0.00 0.00 0.00 52 1013.4
20260507164305 12 346 8.0 25.7 0.00 0.00 0.00 53 1013.5
20260507163805 13 349 24.1 24.1 0.00 0.00 0.00 54 1013.6
20260507163304 12 257 11.3 22.5 0.00 0.00 0.00 51 1013.7
20260507162804 12 242 6.4 20.9 0.00 0.00 0.00 60 1013.8
20260507162307 12 346 17.7 24.1 0.00 0.00 0.00 54 1013.8
20260507161804 12 275 9.7 24.1 0.00 0.00 0.00 54 1013.8
20260507161304 12 284 12.9 24.1 0.00 0.00 0.00 52 1013.7
20260507160303 12 272 8.0 24.1 0.00 0.00 0.00 56 1013.7
20260507155804 12 290 8.0 19.3 0.00 0.00 0.00 54 1013.8
20260507154803 11 273 3.2 25.7 0.00 0.00 0.00 52 1013.8
20260507154303 11 323 1.6 25.7 0.00 0.00 0.00 59 1013.9
20260507153833 11 275 14.5 20.9 0.00 0.00 0.00 53 1013.9
20260507153333 11 292 3.2 20.9 0.00 0.00 0.00 53 1013.9
20260507152832 11 311 9.7 20.9 0.00 0.00 0.00 55 1013.9
20260507152332 11 301 9.7 20.9 0.00 0.00 0.00 51 1013.9
20260507151832 11 209 3.2 20.9 0.00 0.00 0.00 53 1013.8
20260507151332 11 219 6.4 19.3 0.00 0.00 0.00 57 1013.7
20260507150832 11 265 11.3 17.7 0.00 0.00 0.00 54 1013.6
20260507145832 11 355 6.4 19.3 0.00 0.00 0.00 58 1013.7
20260507145331 11 313 1.6 22.5 0.00 0.00 0.00 55 1013.6
20260507144831 10 299 11.3 22.5 0.00 0.00 0.00 59 1013.7
20260507144331 10 38 3.2 22.5 0.00 0.00 0.00 54 1013.7
20260507143831 10 306 8.0 22.5 0.00 0.00 0.00 55 1013.7
20260507143331 10 301 14.5 19.3 0.00 0.00 0.00 56 1013.7
20260507142831 10 278 4.8 19.3 0.00 0.00 0.00 53 1013.7
20260507142331 10 200 4.8 22.5 0.00 0.00 0.00 56 1013.7
20260507141830 10 288 16.1 22.5 0.00 0.00 0.00 55 1013.6
20260507141330 10 18 4.8 20.9 0.00 0.00 0.00 59 1013.7
20260507140830 10 327 4.8 20.9 0.00 0.00 0.00 57 1013.6
20260507135830 10 269 4.8 20.9 0.00 0.00 0.00 54 1013.6
20260507135329 10 355 6.4 19.3 0.00 0.00 0.00 58 1013.7
20260507134329 9 343 4.8 20.9 0.00 0.00 0.00 60 1013.7
20260507133830 9 209 3.2 17.7 0.00 0.00 0.00 59 1013.6
20260507133329 8 5 6.4 17.7 0.00 0.00 0.00 60 1013.7
20260507132829 8 71 3.2 17.7 0.00 0.00 0.00 62 1013.7
20260507132329 8 335 3.2 17.7 0.00 0.00 0.00 67 1013.7
20260507131829 8 355 3.2 11.3 0.00 0.00 0.00 65 1013.7
20260507131328 8 14 3.2 11.3 0.00 0.00 0.00 65 1013.7
20260507125828 8 313 1.6 12.9 0.00 0.00 0.00 67 1013.5
20260507125328 8 297 1.6 12.9 0.00 0.00 0.00 68 1013.5
20260507124827 7 303 3.2 11.3 0.00 0.00 0.00 71 1013.6
20260507123827 7 329 3.2 9.7 0.00 0.00 0.00 75 1013.5
20260507122827 7 286 4.8 8.0 0.00 0.00 0.00 76 1013.6
20260507122327 7 338 0.0 8.0 0.00 0.00 0.00 78 1013.6
20260507121827 6 338 1.6 8.0 0.00 0.00 0.00 80 1013.6
20260507120826 6 213 1.6 8.0 0.00 0.00 0.00 81 1013.6
20260507120326 6 319 0.0 8.0 0.00 0.00 0.00 82 1013.6
20260507115826 5 303 0.0 6.4 0.00 0.00 0.00 82 1013.8
20260507115326 5 338 1.6 4.8 0.00 0.00 0.00 85 1013.8
20260507114826 5 340 1.6 3.2 0.00 0.00 0.00 88 1013.8
20260507114326 5 168 0.0 1.6 0.00 0.00 0.00 89 1013.8
20260507113826 4 168 1.6 1.6 0.00 0.00 0.00 91 1013.8
20260507113325 3 185 0.0 1.6 0.00 0.00 0.00 92 1013.7
20260507112825 3 292 1.6 1.6 0.00 0.00 0.00 93 1013.6
20260507111825 2 339 0.0 0.0 0.00 0.00 0.00 94 1013.5
20260507111325 2 340 0.0 0.0 0.00 0.00 0.00 94 1013.5
20260507110824 2 340 0.0 0.0 0.00 0.00 0.00 93 1013.5
20260507110324 2 340 0.0 0.0 0.00 0.00 0.00 93 1013.4
20260507105824 2 55 0.0 0.0 0.00 0.00 0.00 93 1013.4
20260507105324 2 24 0.0 0.0 0.00 0.00 0.00 93 1013.4
20260507104824 2 294 0.0 0.0 0.00 0.00 0.00 93 1013.2
20260507104324 2 264 0.0 0.0 0.00 0.00 0.00 93 1013.0
20260507103823 2 264 0.0 0.0 0.00 0.00 0.00 93 1013.1
20260507103323 2 264 0.0 0.0 0.00 0.00 0.00 93 1012.9
20260507102823 2 264 0.0 0.0 0.00 0.00 0.00 94 1012.9
20260507102323 2 264 0.0 0.0 0.00 0.00 0.00 94 1012.9
20260507101823 2 264 0.0 0.0 0.00 0.00 0.00 94 1012.7
20260507101323 2 264 0.0 0.0 0.00 0.00 0.00 94 1012.8
20260507100823 2 264 0.0 1.6 0.00 0.00 0.00 93 1012.8
20260507095822 2 264 0.0 1.6 0.00 0.00 0.00 93 1012.8
20260507095322 2 264 0.0 3.2 0.00 0.00 0.00 94 1012.8
20260507094822 2 264 0.0 3.2 0.00 0.00 0.00 93 1012.9
20260507094322 2 261 1.6 1.6 0.00 0.00 0.00 93 1013.0
20260507093822 2 261 0.0 0.0 0.00 0.00 0.00 93 1012.9
20260507092821 2 261 0.0 1.6 0.00 0.00 0.00 93 1013.1
20260507091821 2 261 0.0 1.6 0.00 0.00 0.00 93 1012.8
20260507091321 2 261 0.0 1.6 0.00 0.00 0.00 94 1012.7
20260507090821 2 261 0.0 1.6 0.00 0.00 0.00 94 1012.7
20260507090321 2 261 0.0 1.6 0.00 0.00 0.00 94 1012.7
20260507085820 2 261 0.0 0.0 0.00 0.00 0.00 94 1012.8
20260507085321 2 261 0.0 0.0 0.00 0.00 0.00 94 1012.8
20260507084820 2 261 0.0 0.0 0.00 0.00 0.00 94 1012.7
20260507084320 2 261 0.0 0.0 0.00 0.00 0.00 94 1012.6
20260507083820 2 261 0.0 1.6 0.00 0.00 0.00 94 1012.6
20260507083320 2 261 0.0 1.6 0.00 0.00 0.00 94 1012.5
20260507082819 2 261 0.0 1.6 0.00 0.00 0.00 94 1012.4
20260507082320 2 261 0.0 1.6 0.00 0.03 0.00 94 1012.5
20260507081819 2 261 0.0 0.0 0.00 0.03 0.00 94 1012.5
20260507081319 2 261 0.0 3.2 0.00 0.03 0.00 94 1012.6
20260507080319 3 290 0.0 3.2 0.00 0.03 0.00 94 1012.7
20260507075818 3 289 0.0 3.2 0.00 0.03 0.00 94 1012.6
20260507074818 3 289 0.0 1.6 0.00 0.05 0.00 94 1012.7
20260507073818 3 290 0.0 1.6 0.00 0.05 0.00 94 1012.5
20260507073318 3 289 0.0 1.6 0.00 0.08 0.00 94 1012.6
20260507072818 3 289 0.0 0.0 0.00 0.08 0.00 94 1012.5
20260507071818 3 290 0.0 0.0 0.00 0.10 0.00 94 1012.5
20260507071317 3 289 0.0 0.0 0.00 0.10 0.00 94 1012.5
20260507070317 3 289 0.0 0.0 0.00 0.10 0.00 94 1012.6
20260507065817 3 289 0.0 0.0 0.00 0.10 0.00 94 1012.5
20260507065317 3 289 0.0 0.0 0.00 0.10 0.00 94 1012.6
20260507064816 3 289 0.0 0.0 0.00 0.10 0.00 94 1012.6
20260507064316 3 290 0.0 0.0 0.00 0.10 0.00 94 1012.7
20260507063816 3 289 0.0 0.0 0.00 0.10 0.00 94 1012.8
20260507063316 3 289 0.0 0.0 0.00 0.10 0.00 94 1012.8
20260507062816 3 290 0.0 0.0 0.00 0.13 0.00 94 1012.9
20260507061815 3 290 0.0 0.0 0.00 0.13 0.00 94 1012.8
20260507061315 3 289 0.0 0.0 0.00 0.15 0.00 94 1012.9
20260507060815 3 289 0.0 0.0 0.00 0.15 0.00 94 1012.8
20260507060315 3 290 0.0 0.0 0.00 0.18 0.00 94 1012.9
20260507055815 3 289 0.0 0.0 0.00 0.20 0.00 94 1012.8
20260507054814 3 290 0.0 0.0 0.00 0.23 0.00 94 1012.8
20260507054314 4 289 0.0 0.0 0.00 0.23 0.00 94 1012.8
20260507053815 4 289 0.0 0.0 0.00 0.25 0.00 94 1012.8
20260507053314 4 290 0.0 0.0 0.00 0.25 0.00 94 1012.9
20260507052814 4 289 0.0 0.0 0.00 0.28 0.00 94 1012.8
20260507052314 4 289 0.0 0.0 0.00 0.30 0.00 94 1012.8
20260507051814 4 290 0.0 0.0 0.00 0.33 0.00 94 1012.9
20260507051313 4 289 0.0 0.0 0.00 0.38 0.00 94 1013.0
20260507050813 4 289 0.0 0.0 0.00 0.41 0.00 94 1012.9
20260507050313 4 289 0.0 0.0 0.00 0.46 0.00 93 1013.0
20260507045813 4 289 0.0 0.0 0.00 0.48 0.00 94 1013.1
20260507045313 4 289 0.0 0.0 0.00 0.53 0.00 93 1013.0
20260507043813 5 290 0.0 0.0 0.00 0.71 0.00 93 1012.8
20260507043312 5 290 0.0 0.0 0.00 0.76 0.00 93 1012.8
20260507042312 5 289 0.0 0.0 0.00 0.79 0.00 93 1012.9
20260507041812 5 289 0.0 0.0 0.00 0.79 0.00 93 1012.9
20260507041312 5 289 0.0 0.0 0.00 0.79 0.00 93 1012.9
20260507040811 5 289 0.0 0.0 0.00 0.81 0.00 93 1012.9
20260507040311 5 290 0.0 0.0 0.00 0.84 0.00 93 1012.8
20260507035812 5 289 0.0 0.0 0.00 0.89 0.84 92 1012.8
20260507034811 5 289 0.0 0.0 0.00 1.07 0.84 92 1012.7
20260507033811 5 289 0.0 0.0 0.00 1.22 0.84 92 1012.7
20260507033310 5 289 0.0 0.0 0.00 1.24 0.84 92 1012.7
20260507032310 5 289 0.0 0.0 0.00 1.24 0.84 91 1012.7
20260507031810 5 289 0.0 0.0 0.00 1.24 0.84 91 1012.6
20260507031310 5 289 0.0 0.0 0.00 1.24 0.84 91 1012.7
20260507030809 6 289 0.0 0.0 0.00 1.24 0.84 90 1012.7
20260507030310 6 289 0.0 0.0 0.00 1.24 0.84 90 1012.8
20260507025809 6 289 0.0 0.0 0.00 1.24 0.84 90 1012.7
20260507025310 6 289 0.0 0.0 0.00 1.24 0.84 90 1012.7
20260507024809 6 289 0.0 0.0 0.00 1.24 0.84 90 1012.8